FW8165 Weather Reports


time (UTC)temp
C
wind
direction
speed
KPH
gust
KPH
rain 1hr
cm
rain 24hr
cm
rain mn
cm
humidity
%
barometer
mb
20260906113346 23 222 0.0 0.0 0.00 0.00 0.00 99 1010.8
20260906112841 23 222 0.0 0.0 0.00 0.00 0.00 99 1010.8
20260906112338 23 222 0.0 0.0 0.00 0.00 0.00 99 1010.8
20260906111838 23 282 0.0 0.0 0.00 0.00 0.00 99 1010.8
20260906111338 23 270 0.0 0.0 0.00 0.00 0.00 99 1010.8
20260906110832 23 270 0.0 0.0 0.00 0.00 0.00 99 1010.8
20260906110328 23 258 0.0 0.0 0.00 0.00 0.00 99 1010.8
20260906105827 23 270 0.0 0.0 0.00 0.00 0.00 99 1010.5
20260906105323 23 299 0.0 0.0 0.00 0.00 0.00 99 1010.5
20260906104819 23 299 0.0 0.0 0.00 0.00 0.00 99 1010.5
20260906104317 23 299 0.0 0.0 0.00 0.00 0.00 99 1010.5
20260906103810 23 299 0.0 0.0 0.00 0.00 0.00 99 1010.5
20260906103309 23 222 0.0 0.0 0.00 0.00 0.00 99 1010.5
20260906102805 23 222 0.0 0.0 0.00 0.00 0.00 99 1010.5
20260906102306 23 234 0.0 0.0 0.00 0.00 0.00 99 1010.5
20260906101759 23 234 0.0 0.0 0.00 0.00 0.00 98 1010.5
20260906101254 23 221 0.0 0.0 0.00 0.00 0.00 98 1009.8
20260906100749 23 221 0.0 0.0 0.00 0.00 0.00 98 1009.8
20260906100249 23 216 0.0 0.0 0.00 0.00 0.00 98 1009.8
20260906095744 23 216 0.0 0.0 0.00 0.00 0.00 98 1009.8
20260906095239 23 246 0.0 0.0 0.00 0.00 0.00 98 1009.8
20260906094738 23 246 0.0 0.0 0.00 0.00 0.00 98 1009.8
20260906094234 23 246 0.0 0.0 0.00 0.00 0.00 98 1009.8
20260906093730 23 246 0.0 0.0 0.00 0.00 0.00 97 1009.8
20260906093226 23 246 0.0 0.0 0.00 0.00 0.00 97 1009.8
20260906092721 23 222 0.0 0.0 0.00 0.00 0.00 97 1009.8
20260906092220 23 210 0.0 0.0 0.00 0.00 0.00 97 1009.8
20260906091716 23 210 0.0 0.0 0.00 0.00 0.00 97 1009.8
20260906091207 23 210 0.0 0.0 0.00 0.00 0.00 96 1009.8
20260906090703 23 210 0.0 0.0 0.00 0.00 0.00 96 1009.8
20260906090202 23 210 0.0 0.0 0.00 0.00 0.00 96 1009.8
20260906085701 23 210 0.0 0.0 0.00 0.00 0.00 95 1009.8
20260906085200 23 210 0.0 0.0 0.00 0.00 0.00 95 1009.8
20260906084655 23 264 0.0 0.0 0.00 0.00 0.00 95 1009.8
20260906084155 23 264 0.0 0.0 0.00 0.00 0.00 94 1009.5
20260906083650 23 293 0.0 0.0 0.00 0.00 0.00 94 1009.5
20260906083145 23 271 0.0 0.0 0.00 0.00 0.00 94 1009.5
20260906082640 24 232 0.0 0.0 0.00 0.00 0.00 95 1009.5
20260906082136 24 242 0.0 0.0 0.00 0.00 0.00 94 1009.5
20260906081632 24 231 0.0 0.0 0.00 0.00 0.00 94 1009.5
20260906081126 24 231 0.0 0.0 0.00 0.00 0.00 94 1009.8
20260906080623 24 231 0.0 0.0 0.00 0.00 0.00 93 1009.8
20260906080119 24 234 0.0 0.0 0.00 0.00 0.00 93 1009.8
20260906075618 24 252 0.0 0.0 0.00 0.00 0.00 94 1009.8
20260906075113 24 293 0.0 0.0 0.00 0.00 0.00 95 1009.8
20260906074609 24 314 0.0 0.0 0.00 0.00 0.00 94 1009.8
20260906074107 24 246 0.0 0.0 0.00 0.00 0.00 94 1010.1
20260906073602 24 247 0.0 0.0 0.00 0.00 0.00 94 1010.1
20260906073058 24 258 0.0 0.0 0.00 0.00 0.00 94 1010.1
20260906072552 24 270 0.0 0.0 0.00 0.00 0.00 93 1010.1
20260906072049 24 251 0.0 0.0 0.00 0.00 0.00 94 1010.1
20260906071545 24 248 0.0 0.0 0.00 0.00 0.00 94 1010.1
20260906071039 24 270 0.0 0.0 0.00 0.00 0.00 93 1010.1
20260906070536 24 260 0.0 0.0 0.00 0.00 0.00 93 1010.1
20260906070032 24 288 0.0 0.0 0.00 0.00 0.00 94 1010.5
20260906065531 24 292 0.0 0.0 0.00 0.00 0.00 93 1010.5
20260906065027 24 241 0.0 0.0 0.00 0.00 0.00 93 1010.5
20260906064522 24 241 0.0 0.0 0.00 0.00 0.00 93 1010.8
20260906064017 25 243 0.0 0.0 0.00 0.00 0.00 93 1010.8
20260906063512 25 243 0.0 0.0 0.00 0.00 0.00 93 1010.8
20260906063008 25 240 0.0 0.0 0.00 0.00 0.00 92 1010.8
20260906062503 25 240 0.0 0.0 0.00 0.00 0.00 92 1010.8
20260906061957 25 241 0.0 0.0 0.00 0.00 0.00 92 1010.8
20260906061453 25 264 0.0 0.0 0.00 0.00 0.00 91 1010.8
20260906060947 25 264 0.0 0.0 0.00 0.00 0.00 91 1010.8
20260906060444 25 264 0.0 0.0 0.00 0.00 0.00 92 1010.8
20260906055941 25 214 0.0 0.0 0.00 0.00 0.00 91 1010.5
20260906055437 25 244 0.0 0.0 0.00 0.00 0.00 91 1010.5
20260906054932 25 261 0.0 0.0 0.00 0.00 0.00 91 1010.5
20260906054426 25 212 0.0 0.0 0.00 0.00 0.00 90 1010.5
20260906053922 25 211 0.0 0.0 0.00 0.00 0.00 90 1010.5
20260906053418 25 222 0.0 0.0 0.00 0.00 0.00 90 1010.5
20260906052914 25 241 0.0 0.0 0.00 0.00 0.00 89 1010.5
20260906052410 25 277 0.0 0.0 0.00 0.00 0.00 90 1010.5
20260906051907 25 234 0.0 0.0 0.00 0.00 0.00 89 1010.5
20260906051406 25 208 0.0 0.0 0.00 0.00 0.00 90 1010.8
20260906050902 25 206 0.0 0.0 0.00 0.00 0.00 90 1010.8
20260906050357 26 306 0.0 0.0 0.00 0.00 0.00 89 1010.8
20260906045855 26 287 0.0 0.0 0.00 0.00 0.00 90 1011.2
20260906045349 26 294 0.0 0.0 0.00 0.00 0.00 90 1011.2
20260906044846 26 353 0.0 0.0 0.00 0.00 0.00 90 1011.2
20260906044345 26 322 0.0 0.0 0.00 0.00 0.00 90 1011.5
20260906043841 26 246 0.0 0.0 0.00 0.00 0.00 90 1011.5
20260906043337 26 298 0.0 0.0 0.00 0.00 0.00 90 1011.5
20260906042833 26 211 0.0 0.0 0.00 0.00 0.00 89 1011.2
20260906042331 26 244 0.0 0.0 0.00 0.00 0.00 89 1011.2
20260906041827 26 5 0.0 0.0 0.00 0.00 0.00 89 1011.2
20260906041323 26 126 0.0 0.0 0.00 0.00 0.00 90 1011.2
20260906040822 26 242 0.0 0.0 0.00 0.00 0.00 90 1011.2
20260906040318 26 319 0.0 0.0 0.00 0.00 0.00 90 1011.2
20260906035813 27 282 3.2 3.2 0.00 0.00 0.00 90 1011.2
20260906035309 27 313 0.0 0.0 0.00 0.00 0.00 91 1011.2
20260906034804 27 329 3.2 3.2 0.00 0.00 0.00 91 1011.2
20260906034304 27 294 0.0 0.0 0.00 0.00 0.00 91 1010.8
20260906033800 27 240 0.0 0.0 0.00 0.00 0.00 91 1010.8
20260906033259 27 240 0.0 0.0 0.00 0.00 0.00 92 1010.8
20260906032755 27 203 0.0 0.0 0.00 0.00 0.00 92 1010.8
20260906032256 28 294 0.0 0.0 0.00 0.00 0.00 92 1010.8
20260906031751 28 293 0.0 0.0 0.00 0.00 0.00 92 1010.8
20260906031247 28 258 0.0 0.0 0.00 0.00 0.00 92 1011.2
20260906030746 28 230 0.0 0.0 0.00 0.00 0.00 92 1011.2
20260906030241 28 276 0.0 0.0 0.00 0.00 0.00 91 1011.2
20260906025741 28 252 0.0 0.0 0.00 0.00 0.00 92 1010.8
20260906025235 28 253 0.0 0.0 0.00 0.00 0.00 92 1010.8
20260906024734 28 192 0.0 0.0 0.00 0.00 0.00 92 1010.8
20260906024233 28 199 0.0 0.0 0.00 0.00 0.00 91 1010.5
20260906023729 28 298 0.0 0.0 0.00 0.00 0.00 92 1010.5
20260906023225 28 319 0.0 0.0 0.00 0.00 0.00 92 1010.5
20260906022720 28 106 0.0 0.0 0.00 0.00 0.00 92 1010.5
20260906022215 28 222 0.0 0.0 0.00 0.00 0.00 92 1010.5
20260906021711 28 194 0.0 0.0 0.00 0.00 0.00 92 1010.5
20260906021204 28 192 0.0 0.0 0.00 0.00 0.00 92 1010.8
20260906020659 28 286 0.0 0.0 0.00 0.00 0.00 91 1010.8
20260906020154 28 306 3.2 3.2 0.00 0.00 0.00 92 1010.8
20260906015648 28 59 3.2 3.2 0.00 0.00 0.00 92 1009.5
20260906015147 28 180 0.0 0.0 0.00 0.00 0.00 92 1009.5
20260906014647 28 330 1.6 1.6 0.00 0.00 0.00 92 1009.5
20260906014143 28 180 3.2 3.2 0.00 0.00 0.00 92 1009.1
20260906013638 28 192 3.2 3.2 0.00 0.00 0.00 92 1009.1
20260906013133 28 138 0.0 0.0 0.00 0.00 0.00 92 1009.1
20260906012628 28 288 0.0 0.0 0.00 0.00 0.00 92 1009.8
20260906012123 28 204 0.0 0.0 0.00 0.00 0.00 92 1009.8
20260906011619 28 172 0.0 0.0 0.00 0.00 0.00 92 1009.8
20260906011119 28 178 0.0 0.0 0.00 0.00 0.00 92 1010.5
20260906010614 28 192 0.0 0.0 0.00 0.00 0.00 91 1010.5
20260906010110 28 151 3.2 3.2 0.00 0.00 0.00 90 1010.5
20260906005609 28 341 4.8 4.8 0.00 0.00 0.00 91 1010.8
20260906005109 28 235 3.2 3.2 0.00 0.00 0.00 90 1010.8
20260906004608 28 236 0.0 0.0 0.00 0.00 0.00 90 1010.8
20260906004103 28 273 0.0 0.0 0.00 0.00 0.00 90 1011.2
20260906003558 29 318 0.0 0.0 0.00 0.00 0.00 89 1011.2
20260906003054 29 263 1.6 1.6 0.00 0.00 0.00 89 1010.8
20260906002549 29 239 0.0 0.0 0.00 0.00 0.00 89 1010.8
20260906002044 29 276 0.0 0.0 0.00 0.00 0.00 89 1010.8
20260906001539 29 173 0.0 0.0 0.00 0.00 0.00 89 1010.8
20260906001033 29 211 0.0 0.0 0.00 0.00 0.00 89 1010.8
20260906000529 29 251 0.0 0.0 0.00 0.00 0.00 89 1010.8
20260906000024 29 282 0.0 0.0 0.00 0.00 0.00 89 1010.8
20260905235518 29 211 0.0 0.0 0.00 0.00 0.00 88 1010.8
20260905235013 29 108 0.0 0.0 0.00 0.00 0.00 88 1010.8
20260905234508 29 180 0.0 0.0 0.00 0.00 0.00 87 1010.8
20260905234003 30 137 0.0 0.0 0.00 0.00 0.00 87 1010.8
20260905233458 30 22 0.0 0.0 0.00 0.00 0.00 86 1010.8
20260905232956 30 120 0.0 0.0 0.00 0.00 0.00 86 1010.8
20260905232453 30 154 0.0 0.0 0.00 0.00 0.00 85 1010.8
20260905231948 30 174 0.0 0.0 0.00 0.00 0.00 84 1010.8
20260905231444 30 107 3.2 3.2 0.00 0.00 0.00 84 1010.5
20260905230940 30 240 0.0 0.0 0.00 0.00 0.00 83 1010.5
20260905230438 31 210 0.0 0.0 0.00 0.00 0.00 81 1010.5
20260905225937 31 198 0.0 0.0 0.00 0.00 0.00 80 1010.5
20260905225432 31 293 0.0 0.0 0.00 0.00 0.00 78 1010.5
20260905224927 31 262 3.2 3.2 0.00 0.00 0.00 77 1010.5
20260905224423 31 257 0.0 0.0 0.00 0.00 0.00 78 1010.5
20260905223922 31 235 0.0 0.0 0.00 0.00 0.00 78 1010.5
20260905223421 31 97 3.2 3.2 0.00 0.00 0.00 79 1010.5
20260905222921 31 308 0.0 0.0 0.00 0.00 0.00 79 1010.1
20260905222420 31 228 3.2 3.2 0.00 0.00 0.00 79 1010.1
20260905221916 32 43 3.2 3.2 0.00 0.00 0.00 78 1010.1
20260905221413 32 109 4.8 6.4 0.00 0.00 0.00 78 1010.1
20260905220908 32 347 3.2 3.2 0.00 0.00 0.00 78 1010.1
20260905220404 32 94 4.8 6.4 0.00 0.00 0.00 78 1010.1
20260905215903 32 138 0.0 0.0 0.00 0.00 0.00 77 1010.1
20260905215359 32 72 3.2 3.2 0.00 0.00 0.00 76 1010.1
20260905214855 33 179 3.2 3.2 0.00 0.00 0.00 74 1010.1
20260905214350 33 116 3.2 3.2 0.00 0.00 0.00 73 1010.1
20260905213845 33 204 0.0 0.0 0.00 0.00 0.00 72 1010.1
20260905213341 33 180 4.8 4.8 0.00 0.00 0.00 72 1010.1
20260905212836 34 160 1.6 1.6 0.00 0.00 0.00 72 1009.8
20260905212336 34 217 3.2 3.2 0.00 0.00 0.00 70 1009.8
20260905211830 35 206 0.0 0.0 0.00 0.00 0.00 63 1009.8
20260905211326 35 204 0.0 0.0 0.00 0.00 0.00 60 1009.5
20260905210822 35 217 0.0 0.0 0.00 0.00 0.00 59 1009.5
20260905210322 35 250 0.0 0.0 0.00 0.00 0.00 60 1009.5
20260905205821 36 330 3.2 3.2 0.00 0.00 0.00 58 1009.8
20260905205316 36 306 3.2 3.2 0.00 0.00 0.00 56 1009.8
20260905204815 36 246 0.0 0.0 0.00 0.00 0.00 56 1009.8
20260905204311 35 330 3.2 3.2 0.00 0.00 0.00 56 1009.5
20260905203810 35 211 4.8 4.8 0.00 0.00 0.00 58 1009.5
20260905203306 35 276 1.6 1.6 0.00 0.00 0.00 62 1009.5
20260905202801 36 281 0.0 0.0 0.00 0.00 0.00 58 1009.5
20260905202256 36 357 0.0 0.0 0.00 0.00 0.00 58 1009.5
20260905201752 36 270 3.2 3.2 0.00 0.00 0.00 57 1009.5
20260905201247 36 120 0.0 0.0 0.00 0.00 0.00 58 1009.5
20260905200742 36 252 0.0 0.0 0.00 0.00 0.00 57 1009.5
20260905200238 36 264 1.6 1.6 0.00 0.00 0.00 57 1009.5
20260905195735 36 173 3.2 3.2 0.00 0.00 0.00 57 1009.8
20260905195230 35 281 3.2 3.2 0.00 0.00 0.00 59 1009.8
20260905194726 35 342 4.8 4.8 0.00 0.00 0.00 60 1009.8
20260905194225 35 33 4.8 4.8 0.00 0.00 0.00 58 1010.1
20260905193719 36 288 3.2 3.2 0.00 0.00 0.00 58 1010.1
20260905193214 36 288 0.0 0.0 0.00 0.00 0.00 59 1010.1
20260905192710 35 263 1.6 1.6 0.00 0.00 0.00 60 1010.5
20260905192206 35 240 0.0 0.0 0.00 0.00 0.00 59 1010.5
20260905191706 35 261 3.2 3.2 0.00 0.00 0.00 61 1010.5
20260905191204 34 352 8.0 8.0 0.00 0.00 0.00 62 1010.5
20260905190703 34 180 0.0 0.0 0.00 0.00 0.00 66 1010.5
20260905190202 34 204 0.0 0.0 0.00 0.00 0.00 61 1010.5
20260905185701 34 216 1.6 1.6 0.00 0.00 0.00 64 1010.8
20260905185155 33 263 0.0 0.0 0.00 0.00 0.00 67 1010.8
20260905184655 34 192 3.2 3.2 0.00 0.00 0.00 63 1010.8
20260905184153 33 330 0.0 0.0 0.00 0.00 0.00 63 1011.2
20260905183648 33 54 0.0 0.0 0.00 0.00 0.00 65 1011.2
20260905183143 33 302 0.0 0.0 0.00 0.00 0.00 65 1011.2
20260905182643 33 294 4.8 4.8 0.00 0.00 0.00 67 1011.5
20260905182143 34 288 1.6 1.6 0.00 0.00 0.00 64 1011.5
20260905181638 35 296 4.8 4.8 0.00 0.00 0.00 61 1011.5
20260905181137 35 252 3.2 3.2 0.00 0.00 0.00 62 1011.5
20260905180632 35 126 3.2 3.2 0.00 0.00 0.00 64 1011.5
20260905180127 35 342 3.2 3.2 0.00 0.00 0.00 66 1011.5
20260905175626 34 174 0.0 0.0 0.00 0.00 0.00 66 1011.5
20260905175122 35 340 3.2 3.2 0.00 0.00 0.00 63 1011.5
20260905174617 34 345 3.2 3.2 0.00 0.00 0.00 62 1011.5
20260905174113 34 72 1.6 1.6 0.00 0.00 0.00 64 1012.2
20260905173609 34 150 3.2 3.2 0.00 0.00 0.00 65 1012.2
20260905173104 34 300 3.2 3.2 0.00 0.00 0.00 64 1012.2
20260905172603 33 186 1.6 1.6 0.00 0.00 0.00 64 1012.2
20260905172058 34 66 0.0 0.0 0.00 0.00 0.00 63 1012.2
20260905171554 33 223 3.2 3.2 0.00 0.00 0.00 63 1012.2
20260905171050 32 230 0.0 0.0 0.00 0.00 0.00 64 1012.2
20260905170547 32 178 3.2 3.2 0.00 0.00 0.00 72 1012.2
20260905170042 32 210 0.0 0.0 0.00 0.00 0.00 69 1012.2
20260905165536 33 211 0.0 0.0 0.00 0.00 0.00 70 1012.5
20260905165026 33 288 0.0 0.0 0.00 0.00 0.00 67 1012.5
20260905164526 33 50 3.2 3.2 0.00 0.00 0.00 69 1012.5
20260905164021 33 246 0.0 0.0 0.00 0.00 0.00 66 1012.9
20260905163517 32 322 0.0 0.0 0.00 0.00 0.00 69 1012.9
20260905163013 32 240 3.2 3.2 0.00 0.00 0.00 70 1012.9
20260905162508 33 228 1.6 1.6 0.00 0.00 0.00 67 1013.2
20260905162003 33 270 3.2 3.2 0.00 0.00 0.00 68 1013.2
20260905161503 33 174 1.6 1.6 0.00 0.00 0.00 71 1013.5
20260905161000 32 246 0.0 0.0 0.00 0.00 0.00 70 1013.5
20260905160454 32 280 3.2 3.2 0.00 0.00 0.00 71 1013.5
20260905155954 32 66 3.2 3.2 0.00 0.00 0.00 71 1013.5
20260905155449 32 288 3.2 3.2 0.00 0.00 0.00 70 1013.5
20260905154947 31 288 0.0 0.0 0.00 0.00 0.00 74 1013.5
20260905154442 33 306 3.2 3.2 0.00 0.00 0.00 71 1013.9
20260905153938 32 204 0.0 0.0 0.00 0.00 0.00 71 1013.9
20260905153434 32 322 0.0 0.0 0.00 0.00 0.00 73 1013.9
20260905152934 32 353 3.2 3.2 0.00 0.00 0.00 71 1013.5
20260905152434 32 20 1.6 1.6 0.00 0.00 0.00 72 1013.5
20260905151928 31 216 6.4 6.4 0.00 0.00 0.00 74 1013.5
20260905151424 31 193 3.2 3.2 0.00 0.00 0.00 76 1013.5
20260905150919 31 204 4.8 4.8 0.00 0.00 0.00 76 1013.5
20260905150419 31 162 1.6 1.6 0.00 0.00 0.00 76 1013.5
20260905145915 30 212 0.0 0.0 0.00 0.00 0.00 80 1013.9
20260905145410 31 295 0.0 0.0 0.00 0.00 0.00 78 1013.9
20260905144909 30 12 4.8 4.8 0.00 0.00 0.00 80 1013.9
20260905144405 30 113 0.0 0.0 0.00 0.00 0.00 82 1013.9
20260905143904 30 341 6.4 6.4 0.00 0.00 0.00 81 1013.9
20260905143358 30 194 3.2 3.2 0.00 0.00 0.00 83 1013.9
20260905142857 30 283 3.2 3.2 0.00 0.00 0.00 84 1013.9
20260905142356 30 198 0.0 0.0 0.00 0.00 0.00 84 1013.9
20260905141852 30 143 0.0 0.0 0.00 0.00 0.00 84 1013.9
20260905141347 29 127 3.2 3.2 0.00 0.00 0.00 83 1013.9
20260905140844 29 228 0.0 0.0 0.00 0.00 0.00 85 1013.9
20260905140344 29 228 0.0 0.0 0.00 0.00 0.00 86 1013.9
20260905135842 28 198 3.2 3.2 0.00 0.00 0.00 88 1013.9
20260905135338 28 204 0.0 0.0 0.00 0.00 0.00 89 1013.9
20260905134833 28 12 3.2 3.2 0.00 0.00 0.00 89 1013.9
20260905134326 28 282 1.6 1.6 0.00 0.00 0.00 89 1014.2
20260905133821 28 228 0.0 0.0 0.00 0.00 0.00 90 1014.2
20260905133316 28 204 3.2 3.2 0.00 0.00 0.00 90 1014.2
20260905132815 28 290 3.2 3.2 0.00 0.00 0.00 91 1013.9
20260905132311 28 259 0.0 0.0 0.00 0.00 0.00 92 1013.9
20260905131805 28 272 0.0 0.0 0.00 0.00 0.00 93 1013.9
20260905131301 27 292 0.0 0.0 0.00 0.00 0.00 94 1013.9
20260905130755 27 186 3.2 3.2 0.00 0.00 0.00 94 1013.9
20260905130254 27 247 0.0 0.0 0.00 0.00 0.00 95 1013.9
20260905125750 27 335 4.8 6.4 0.00 0.00 0.00 95 1013.9
20260905125244 27 315 0.0 0.0 0.00 0.00 0.00 96 1013.9
20260905124741 27 258 0.0 0.0 0.00 0.00 0.00 97 1013.9
20260905124237 26 187 0.0 0.0 0.00 0.00 0.00 98 1013.9
20260905123732 26 265 0.0 0.0 0.00 0.00 0.00 99 1013.9
20260905123229 26 255 0.0 0.0 0.00 0.00 0.00 99 1013.9
20260905122729 26 255 0.0 0.0 0.00 0.00 0.00 99 1013.9
20260905122229 26 288 0.0 0.0 0.00 0.00 0.00 99 1013.9
20260905121724 26 305 0.0 0.0 0.00 0.00 0.00 99 1013.9
20260905121220 25 276 0.0 0.0 0.00 0.00 0.00 99 1013.9
20260905120719 25 277 0.0 0.0 0.00 0.00 0.00 99 1013.9
20260905120214 25 288 0.0 0.0 0.00 0.00 0.00 99 1013.9
20260905115714 25 288 0.0 0.0 0.00 0.00 0.00 99 1013.9
20260905115209 25 32 0.0 0.0 0.00 0.00 0.00 99 1013.9
20260905114709 25 242 0.0 0.0 0.00 0.00 0.00 99 1013.9
20260905114207 25 242 0.0 0.0 0.00 0.00 0.00 99 1013.9
20260905113706 25 242 0.0 0.0 0.00 0.00 0.00 99 1013.9